Zurück zum Katalog

SL-8 DEB

LostLEO
NORAD 39703·DEBRIS·🇷🇺 Russia

Gestartet Feb 12, 1991 von Plesetsk Cosmodrome

Loading…

Nächste Überflüge (nächste 24 Stunden)

TLE

VeraltetSource: Space-Track

Epoche: Aug 5, 2025, 06:14 UTC

1 39703U 91009DS  25217.26004911  .00000081  00000-0  79869-3 0  9992
2 39703  73.8550 209.3811 0190637  34.5982 326.7289 12.27310313506240

Verfolge SL-8 DEB in Echtzeit mit AllMySat

Download on the App Store